Time,TemperatureF,DewpointF,PressureIn,WindDirection,WindDirectionDegrees,WindSpeedMPH,WindSpeedGustMPH,Humidity,HourlyPrecipIn,Conditions,Clouds,dailyrainin,SolarRadiationWatts/m^2,SoftwareType,DateUTC
2013-02-21 00:12:00,20.0,14.0,-100.00,NNE,28,4.0,8.0,76,0.00,,,0.00,0.000000,,2013-02-21 05:12:00,
2013-02-21 00:22:00,20.0,14.0,-100.00,NNE,28,4.0,8.0,76,0.00,,,0.00,0.000000,,2013-02-21 05:22:00,
2013-02-21 00:36:00,20.0,14.0,-100.00,NNE,28,4.0,8.0,76,0.00,,,0.00,0.000000,,2013-02-21 05:36:00,
2013-02-21 00:45:00,20.0,14.0,-100.00,NNE,28,4.0,8.0,76,0.00,,,0.00,0.000000,,2013-02-21 05:45:00,
2013-02-21 01:01:00,19.0,13.0,-100.00,NNE,28,4.0,11.0,78,0.00,,,0.00,0.000000,,2013-02-21 06:01:00,
2013-02-21 01:11:00,19.0,13.0,-100.00,NNE,28,4.0,11.0,78,0.00,,,0.00,0.000000,,2013-02-21 06:11:00,
2013-02-21 01:21:00,19.0,13.0,-100.00,NNE,28,4.0,11.0,78,0.00,,,0.00,0.000000,,2013-02-21 06:21:00,
2013-02-21 01:31:00,19.0,13.0,-100.00,NNE,28,4.0,11.0,78,0.00,,,0.00,0.000000,,2013-02-21 06:31:00,
2013-02-21 01:41:00,19.0,13.0,-100.00,NNE,28,4.0,11.0,78,0.00,,,0.00,0.000000,,2013-02-21 06:41:00,
2013-02-21 02:11:00,18.0,13.0,-100.00,NNW,339,2.0,9.0,80,0.00,,,0.00,0.000000,,2013-02-21 07:11:00,
2013-02-21 02:21:00,18.0,13.0,-100.00,NNW,339,2.0,9.0,80,0.00,,,0.00,0.000000,,2013-02-21 07:21:00,
2013-02-21 02:32:00,18.0,13.0,-100.00,NNW,339,2.0,9.0,80,0.00,,,0.00,0.000000,,2013-02-21 07:32:00,
2013-02-21 02:42:00,18.0,13.0,-100.00,NNW,339,2.0,9.0,80,0.00,,,0.00,0.000000,,2013-02-21 07:42:00,
2013-02-21 03:11:00,15.0,12.0,-100.00,NNW,329,1.0,3.0,86,0.00,,,0.00,0.000000,,2013-02-21 08:11:00,
2013-02-21 03:21:00,15.0,12.0,-100.00,NNW,329,1.0,3.0,86,0.00,,,0.00,0.000000,,2013-02-21 08:21:00,
2013-02-21 03:32:00,15.0,12.0,-100.00,NNW,329,1.0,3.0,86,0.00,,,0.00,0.000000,,2013-02-21 08:32:00,
2013-02-21 03:42:00,15.0,12.0,-100.00,NNW,329,1.0,3.0,86,0.00,,,0.00,0.000000,,2013-02-21 08:42:00,
2013-02-21 04:11:00,14.0,11.0,-100.00,NW,322,0.0,0.0,88,0.00,,,0.00,0.000000,,2013-02-21 09:11:00,
2013-02-21 04:22:00,14.0,11.0,-100.00,NW,322,0.0,0.0,88,0.00,,,0.00,0.000000,,2013-02-21 09:22:00,
2013-02-21 04:32:00,14.0,11.0,-100.00,NW,322,0.0,0.0,88,0.00,,,0.00,0.000000,,2013-02-21 09:32:00,
2013-02-21 04:42:00,14.0,11.0,-100.00,NW,322,0.0,0.0,88,0.00,,,0.00,0.000000,,2013-02-21 09:42:00,
2013-02-21 05:11:00,14.0,11.0,-100.00,NE,38,2.0,4.0,88,0.00,,,0.00,0.000000,,2013-02-21 10:11:00,
2013-02-21 05:21:00,14.0,11.0,-100.00,NE,38,2.0,4.0,88,0.00,,,0.00,0.000000,,2013-02-21 10:21:00,
2013-02-21 05:31:00,14.0,11.0,-100.00,NE,38,2.0,4.0,88,0.00,,,0.00,0.000000,,2013-02-21 10:31:00,
2013-02-21 05:41:00,14.0,11.0,-100.00,NE,38,2.0,4.0,88,0.00,,,0.00,0.000000,,2013-02-21 10:41:00,
2013-02-21 06:01:00,13.0,10.0,-100.00,West,265,0.0,6.0,86,0.00,,,0.00,0.000000,,2013-02-21 11:01:00,
2013-02-21 06:11:00,13.0,10.0,-100.00,West,265,0.0,6.0,86,0.00,,,0.00,0.000000,,2013-02-21 11:11:00,
2013-02-21 06:21:00,13.0,10.0,-100.00,West,265,0.0,6.0,86,0.00,,,0.00,0.000000,,2013-02-21 11:21:00,
2013-02-21 06:31:00,13.0,10.0,-100.00,West,265,0.0,6.0,86,0.00,,,0.00,0.000000,,2013-02-21 11:31:00,
2013-02-21 06:41:00,13.0,10.0,-100.00,West,265,0.0,6.0,86,0.00,,,0.00,0.000000,,2013-02-21 11:41:00,
2013-02-21 07:11:00,13.0,10.0,-100.00,NNE,33,2.0,4.0,87,0.00,,,0.00,0.000000,,2013-02-21 12:11:00,
2013-02-21 07:22:00,13.0,10.0,-100.00,NNE,33,2.0,4.0,87,0.00,,,0.00,0.000000,,2013-02-21 12:22:00,
2013-02-21 07:32:00,13.0,10.0,-100.00,NNE,33,2.0,4.0,87,0.00,,,0.00,0.000000,,2013-02-21 12:32:00,
2013-02-21 07:43:00,13.0,10.0,-100.00,NNE,33,2.0,4.0,87,0.00,,,0.00,0.000000,,2013-02-21 12:43:00,
2013-02-21 08:12:00,13.0,9.0,-100.00,NE,43,1.0,5.0,84,0.00,,,0.00,7.000000,,2013-02-21 13:12:00,
2013-02-21 08:22:00,13.0,9.0,-100.00,NE,43,1.0,5.0,84,0.00,,,0.00,7.000000,,2013-02-21 13:22:00,
2013-02-21 08:32:00,13.0,9.0,-100.00,NE,43,1.0,5.0,84,0.00,,,0.00,7.000000,,2013-02-21 13:32:00,
2013-02-21 08:42:00,13.0,9.0,-100.00,NE,43,1.0,5.0,84,0.00,,,0.00,7.000000,,2013-02-21 13:42:00,
2013-02-21 09:11:00,21.0,15.0,-100.00,East,82,8.0,11.0,78,0.00,,,0.00,163.000000,,2013-02-21 14:11:00,
2013-02-21 09:22:00,21.0,15.0,-100.00,East,82,8.0,11.0,78,0.00,,,0.00,163.000000,,2013-02-21 14:22:00,
2013-02-21 09:32:00,21.0,15.0,-100.00,East,82,8.0,11.0,78,0.00,,,0.00,163.000000,,2013-02-21 14:32:00,
2013-02-21 09:42:00,21.0,15.0,-100.00,East,82,8.0,11.0,78,0.00,,,0.00,163.000000,,2013-02-21 14:42:00,
2013-02-21 10:12:00,22.0,15.0,-100.00,East,83,9.0,16.0,75,0.00,,,0.00,277.000000,,2013-02-21 15:12:00,
2013-02-21 10:22:00,22.0,15.0,-100.00,East,83,9.0,16.0,75,0.00,,,0.00,277.000000,,2013-02-21 15:22:00,
2013-02-21 10:32:00,22.0,15.0,-100.00,East,83,9.0,16.0,75,0.00,,,0.00,277.000000,,2013-02-21 15:32:00,
2013-02-21 10:42:00,22.0,15.0,-100.00,East,83,9.0,16.0,75,0.00,,,0.00,277.000000,,2013-02-21 15:42:00,
2013-02-21 11:12:00,24.0,16.0,-100.00,East,99,10.0,14.0,72,0.00,,,0.00,266.000000,,2013-02-21 16:12:00,
2013-02-21 11:22:00,24.0,16.0,-100.00,East,99,10.0,14.0,72,0.00,,,0.00,266.000000,,2013-02-21 16:22:00,
2013-02-21 11:32:00,24.0,16.0,-100.00,East,99,10.0,14.0,72,0.00,,,0.00,266.000000,,2013-02-21 16:32:00,
2013-02-21 11:42:00,24.0,16.0,-100.00,East,99,10.0,14.0,72,0.00,,,0.00,266.000000,,2013-02-21 16:42:00,
2013-02-21 12:11:00,28.0,17.0,-100.00,East,93,11.0,17.0,63,0.00,,,0.00,514.000000,,2013-02-21 17:11:00,
2013-02-21 12:21:00,28.0,17.0,-100.00,East,93,11.0,17.0,63,0.00,,,0.00,514.000000,,2013-02-21 17:21:00,
2013-02-21 12:32:00,28.0,17.0,-100.00,East,93,11.0,17.0,63,0.00,,,0.00,514.000000,,2013-02-21 17:32:00,
2013-02-21 12:42:00,28.0,17.0,-100.00,East,93,11.0,17.0,63,0.00,,,0.00,514.000000,,2013-02-21 17:42:00,
2013-02-21 13:12:00,31.0,18.0,-100.00,ENE,61,8.0,18.0,57,0.00,,,0.00,814.000000,,2013-02-21 18:12:00,
2013-02-21 13:22:00,31.0,18.0,-100.00,ENE,61,8.0,18.0,57,0.00,,,0.00,814.000000,,2013-02-21 18:22:00,
2013-02-21 13:32:00,31.0,18.0,-100.00,ENE,61,8.0,18.0,57,0.00,,,0.00,814.000000,,2013-02-21 18:32:00,
2013-02-21 13:42:00,31.0,18.0,-100.00,ENE,61,8.0,18.0,57,0.00,,,0.00,814.000000,,2013-02-21 18:42:00,
2013-02-21 14:12:00,34.0,18.0,-100.00,East,85,10.0,17.0,51,0.00,,,0.00,788.000000,,2013-02-21 19:12:00,
2013-02-21 14:21:00,34.0,18.0,-100.00,East,85,10.0,17.0,51,0.00,,,0.00,788.000000,,2013-02-21 19:21:00,
2013-02-21 14:32:00,34.0,18.0,-100.00,East,85,10.0,17.0,51,0.00,,,0.00,788.000000,,2013-02-21 19:32:00,
2013-02-21 14:42:00,34.0,18.0,-100.00,East,85,10.0,17.0,51,0.00,,,0.00,788.000000,,2013-02-21 19:42:00,
2013-02-21 15:11:00,34.0,17.0,-100.00,ESE,107,11.0,16.0,50,0.00,,,0.00,615.000000,,2013-02-21 20:11:00,
2013-02-21 15:21:00,34.0,17.0,-100.00,ESE,107,11.0,16.0,50,0.00,,,0.00,615.000000,,2013-02-21 20:21:00,
2013-02-21 15:32:00,34.0,17.0,-100.00,ESE,107,11.0,16.0,50,0.00,,,0.00,615.000000,,2013-02-21 20:32:00,
2013-02-21 15:42:00,34.0,17.0,-100.00,ESE,107,11.0,16.0,50,0.00,,,0.00,615.000000,,2013-02-21 20:42:00,
2013-02-21 16:12:00,33.0,17.0,-100.00,East,99,10.0,17.0,52,0.00,,,0.00,269.000000,,2013-02-21 21:12:00,
2013-02-21 16:22:00,33.0,17.0,-100.00,East,99,10.0,17.0,52,0.00,,,0.00,269.000000,,2013-02-21 21:22:00,
2013-02-21 16:32:00,33.0,17.0,-100.00,East,99,10.0,17.0,52,0.00,,,0.00,269.000000,,2013-02-21 21:32:00,
2013-02-21 16:42:00,33.0,17.0,-100.00,East,99,10.0,17.0,52,0.00,,,0.00,269.000000,,2013-02-21 21:42:00,
2013-02-21 17:11:00,32.0,18.0,-100.00,East,79,11.0,18.0,55,0.00,,,0.00,89.000000,,2013-02-21 22:11:00,
2013-02-21 17:21:00,32.0,18.0,-100.00,East,79,11.0,18.0,55,0.00,,,0.00,89.000000,,2013-02-21 22:21:00,
2013-02-21 17:32:00,32.0,18.0,-100.00,East,79,11.0,18.0,55,0.00,,,0.00,89.000000,,2013-02-21 22:32:00,
2013-02-21 17:42:00,32.0,18.0,-100.00,East,79,11.0,18.0,55,0.00,,,0.00,89.000000,,2013-02-21 22:42:00,
2013-02-21 18:11:00,30.0,18.0,-100.00,ENE,68,10.0,19.0,60,0.00,,,0.00,25.000000,,2013-02-21 23:11:00,
2013-02-21 18:21:00,30.0,18.0,-100.00,ENE,68,10.0,19.0,60,0.00,,,0.00,25.000000,,2013-02-21 23:21:00,
2013-02-21 18:32:00,30.0,18.0,-100.00,ENE,68,10.0,19.0,60,0.00,,,0.00,25.000000,,2013-02-21 23:32:00,
2013-02-21 18:42:00,30.0,18.0,-100.00,ENE,68,10.0,19.0,60,0.00,,,0.00,25.000000,,2013-02-21 23:42:00,
2013-02-21 19:11:00,30.0,19.0,-100.00,East,86,8.0,14.0,64,0.00,,,0.00,2.000000,,2013-02-22 00:11:00,
2013-02-21 19:22:00,30.0,19.0,-100.00,East,86,8.0,14.0,64,0.00,,,0.00,2.000000,,2013-02-22 00:22:00,
2013-02-21 19:32:00,30.0,19.0,-100.00,East,86,8.0,14.0,64,0.00,,,0.00,2.000000,,2013-02-22 00:32:00,
2013-02-21 19:42:00,30.0,19.0,-100.00,East,86,8.0,14.0,64,0.00,,,0.00,2.000000,,2013-02-22 00:42:00,
2013-02-21 20:11:00,28.0,21.0,-100.00,East,89,8.0,14.0,74,0.00,,,0.00,0.000000,,2013-02-22 01:11:00,
2013-02-21 20:22:00,28.0,21.0,-100.00,East,89,8.0,14.0,74,0.00,,,0.00,0.000000,,2013-02-22 01:22:00,
2013-02-21 20:32:00,28.0,21.0,-100.00,East,89,8.0,14.0,74,0.00,,,0.00,0.000000,,2013-02-22 01:32:00,
2013-02-21 20:42:00,28.0,21.0,-100.00,East,89,8.0,14.0,74,0.00,,,0.00,0.000000,,2013-02-22 01:42:00,
2013-02-21 21:11:00,27.0,24.0,-100.00,East,85,11.0,17.0,88,0.00,,,0.00,0.000000,,2013-02-22 02:11:00,
2013-02-21 21:22:00,27.0,24.0,-100.00,East,85,11.0,17.0,88,0.00,,,0.00,0.000000,,2013-02-22 02:22:00,
2013-02-21 21:32:00,27.0,24.0,-100.00,East,85,11.0,17.0,88,0.00,,,0.00,0.000000,,2013-02-22 02:32:00,
2013-02-21 21:42:00,27.0,24.0,-100.00,East,85,11.0,17.0,88,0.00,,,0.00,0.000000,,2013-02-22 02:42:00,
2013-02-21 22:11:00,29.0,26.0,-100.00,East,92,15.0,27.0,89,0.00,,,0.00,0.000000,,2013-02-22 03:11:00,
2013-02-21 22:22:00,29.0,26.0,-100.00,East,92,15.0,27.0,89,0.00,,,0.00,0.000000,,2013-02-22 03:22:00,
2013-02-21 22:32:00,29.0,26.0,-100.00,East,92,15.0,27.0,89,0.00,,,0.00,0.000000,,2013-02-22 03:32:00,
2013-02-21 22:42:00,29.0,26.0,-100.00,East,92,15.0,27.0,89,0.00,,,0.00,0.000000,,2013-02-22 03:42:00,
2013-02-21 23:11:00,29.0,26.0,-100.00,ESE,114,11.0,24.0,87,0.00,,,0.00,0.000000,,2013-02-22 04:11:00,
2013-02-21 23:21:00,29.0,26.0,-100.00,ESE,114,11.0,24.0,87,0.00,,,0.00,0.000000,,2013-02-22 04:21:00,
2013-02-21 23:32:00,29.0,26.0,-100.00,ESE,114,11.0,24.0,87,0.00,,,0.00,0.000000,,2013-02-22 04:32:00,
2013-02-21 23:42:00,29.0,26.0,-100.00,ESE,114,11.0,24.0,87,0.00,,,0.00,0.000000,,2013-02-22 04:42:00,